Back to catalog

HULIANWANG DIGUI-46

AliveCommunicationsLEO
NORAD 65049·PAYLOAD·🇨🇳 China

Launched Jul 30, 2025 from Wenchang Space Launch Site

Loading…

Next Passes (next 24 hours)

TLE

FreshSource: Space-Track

Epoch: Sep 14, 2026, 21:07 UTC

1 65049U 25162G   26257.88017988 -.00000087  00000-0  79071-4 0  9995
2 65049  50.0070 304.0037 0000698 263.5550  96.5242 13.29330621 55293

Track HULIANWANG DIGUI-46 in real time with AllMySat

Download on the App Store